Home   Weather   Jacksonville   Past weeks

Flag for USA Past Weather in Jacksonville, North Carolina, USA — Yesterday and Last 2 Weeks

Now
62 °F

Low clouds.


Feels Like: 62 °F
Forecast: 64 / 69 °F
Wind: 12 mph from Northeast

Location: Jacksonville - New River

Current Time: Apr 23, 2017 at 4:27:19 am

Latest Report: Apr 23, 2017 at 3:56 am


Visibility: 10 mi

Pressure: 29.91 "Hg

Humidity: 93%

Dew Point: 60 °F

Location of JacksonvilleLocation

Past Weather in Jacksonville — Graph

°F

Jacksonville Temperature Yesterday

Maximum temperature yesterday: 86 °F (at 1:56 pm)
Minimum temperature yesterday: 66 °F (at 6:56 am)
Average temperature yesterday: 74 °F

High & Low Weather Summary for the Past Weeks

 TemperatureHumidityPressure
High88 °F (Apr 21, 2:56 pm)100% (Apr 11, 2:56 am)30.37 "Hg (Apr 11, 2:56 am)
Low39 °F (Apr 8, 5:56 am)20% (Apr 8, 3:56 pm)29.82 "Hg (Apr 22, 5:56 pm)
Average67 °F75%30.19 "Hg
* Reported Apr 8 2:56 am — Apr 23 2:56 am, Jacksonville, Weather by CustomWeather, © 2017

Note: Actual official high and low records may vary slightly from our data, if they occured in-between our weather recording intervals... More about our weather records

Advertising

Jacksonville Weather History for the Previous 24 Hours

Scroll right to see more
 ConditionsComfort  
Time TempWeatherWind HumidityBarometerVisibility
2:56 am
Sun, Apr 23
64 °FLow clouds.9 mph94%29.91 "Hg10 mi
2:33 am64 °FPassing clouds.7 mph94%29.91 "Hg10 mi
2:13 am65 °FPassing clouds.9 mph91%29.90 "Hg10 mi
1:56 am65 °FPassing clouds.6 mph94%29.91 "Hg10 mi
12:56 am67 °FPassing clouds.7 mph90%29.92 "Hg10 mi
11:56 pm
Sat, Apr 22
70 °FMostly cloudy.12 mph84%29.91 "Hg10 mi
10:56 pm72 °FClear.7 mph78%29.90 "Hg10 mi
9:56 pm71 °FClear.8 mph84%29.87 "Hg10 mi
8:56 pm72 °FClear.8 mph87%29.85 "Hg10 mi
7:56 pm75 °FClear.9 mph79%29.83 "Hg10 mi
6:56 pm78 °FSunny.13 mph71%29.82 "Hg10 mi
5:56 pm82 °FSunny.15 mph60%29.82 "Hg10 mi
4:56 pm83 °FScattered clouds.12 mph59%29.82 "Hg10 mi
3:56 pm84 °FPassing clouds.10 mph59%29.83 "Hg10 mi
2:56 pm85 °FScattered clouds.14 mph59%29.85 "Hg10 mi
1:56 pm86 °FBroken clouds.13 mph45%29.87 "Hg10 mi
11:56 am83 °FSunny.13 mph53%29.92 "Hg10 mi
10:56 am80 °FSunny.9 mph62%29.93 "Hg10 mi
9:56 am75 °FScattered clouds.12 mph76%29.94 "Hg10 mi
8:56 am72 °FPartly sunny.10 mph84%29.94 "Hg10 mi
7:56 am69 °FPassing clouds.6 mph93%29.94 "Hg10 mi
6:56 am66 °FSunny.7 mph96%29.93 "Hg10 mi
5:56 am67 °FClear.8 mph93%29.91 "Hg10 mi
4:56 am67 °FClear.8 mph93%29.91 "Hg10 mi
Weather by CustomWeather, © 2017

See weather overviewHow to use our weather pages